Weather History for Riverside, CA

Change the Weather History Date:

Tuesday, April 30, 2013

  Actual Average Record
Temperature  
Mean Temperature 66 °F 66 °F  
Max Temperature 76 °F 78 °F 98 °F (1996)
Min Temperature 56 °F 53 °F 37 °F (1951)
Degree Days  
Heating Degree Days 0 2  
Month to date heating degree days 46 107  
Since 1 July heating degree days 1162 1420  
Cooling Degree Days 1 2  
Month to date cooling degree days 51 42  
Year to date cooling degree days 89 63  
Growing Degree Days 15 (Base 50)    
Moisture  
Dew Point 52 °F    
Average Humidity 65    
Maximum Humidity 86    
Minimum Humidity 43    
Precipitation  
Precipitation 0.00 in 0.02 in 0.41 in (1930)
Month to date precipitation T 0.80  
Year to date precipitation 2.11 8.79  
Since 1 July precipitation 4.02 12.00  
Snow  
Snow 0.00 in - - ()
Month to date snowfall 0.0  
Year to date snowfall 0.0  
Since 1 July snowfall 0.0  
Snow Depth 0.00 in    
Sea Level Pressure  
Sea Level Pressure 29.81 in    
Wind  
Wind Speed 3 mph (West)    
Max Wind Speed 14 mph    
Max Gust Speed 20 mph    
Visibility 8 miles    
Events      
T = Trace of Precipitation, MM = Missing Value Source: NWS Daily Summary

Daily Weather History Graph

Daily Weather History Graph

Search for Another Location

Airport:

Trip Planner

Search our weather history database for the weather conditions in past years. The results will help you decide how hot, cold, wet, or windy it might be!

Date:

Astronomy

Apr. 30, 2013 Rise Set
Actual Time 6:01 AM PDT 7:32 PM PDT
Civil Twilight 5:34 AM PDT 7:59 PM PDT
Nautical Twilight 5:02 AM PDT 8:31 PM PDT
Astronomical Twilight 4:29 AM PDT 9:05 PM PDT
Moon No Moon Rise 10:38 AM PDT
Length of Visible Light 14h 24m
Length of Day
13h 31m
Waning Gibbous, 69% of the Moon is Illuminated
Apr 30
Waning Gibbous
May 2
Last Quarter
May 9
New
May 17
First Quarter
May 24
Full

Hourly Weather History & Observations

Time (PDT) Temp. Dew Point Humidity Pressure Visibility Wind Dir Wind Speed Gust Speed Precip Events Conditions
12:53 AM 57.0 °F 52.0 °F 83% 29.81 in 10.0 mi West 4.6 mph - N/A   Clear
1:23 AM 55.4 °F 51.8 °F 88% 29.86 in 9.0 mi West 4.6 mph - N/A   Mostly Cloudy
1:53 AM 57.0 °F 52.0 °F 83% 29.81 in 9.0 mi Calm Calm - N/A   Overcast
2:53 AM 57.0 °F 53.1 °F 87% 29.80 in 7.0 mi Calm Calm - N/A   Overcast
3:53 AM 57.0 °F 52.0 °F 83% 29.80 in 7.0 mi Calm Calm - N/A   Overcast
4:53 AM 57.0 °F 52.0 °F 83% 29.80 in 7.0 mi Calm Calm - N/A   Overcast
5:53 AM 57.0 °F 52.0 °F 83% 29.80 in 7.0 mi Calm Calm - N/A   Overcast
6:53 AM 57.9 °F 52.0 °F 81% 29.81 in 4.0 mi Calm Calm - N/A   Haze
7:53 AM 57.9 °F 52.0 °F 81% 29.81 in 5.0 mi Calm Calm - N/A   Haze
8:53 AM 57.9 °F 52.0 °F 81% 29.82 in 5.0 mi WSW 3.5 mph - N/A   Haze
9:01 AM 59.0 °F 51.8 °F 77% 29.86 in 5.0 mi Calm Calm - N/A   Haze
9:53 AM 59.0 °F 52.0 °F 78% 29.84 in 6.0 mi Calm Calm - N/A   Haze
10:36 AM 60.8 °F 51.8 °F 72% 29.86 in 6.0 mi Calm Calm - N/A   Haze
10:53 AM 60.1 °F 52.0 °F 75% 29.83 in 6.0 mi Calm Calm - N/A   Haze
11:53 AM 64.0 °F 52.0 °F 65% 29.82 in 7.0 mi Variable 4.6 mph - N/A   Partly Cloudy
12:53 PM 69.1 °F 52.0 °F 54% 29.81 in 7.0 mi West 8.1 mph - N/A   Clear
1:53 PM 72.0 °F 51.1 °F 48% 29.81 in 10.0 mi Variable 6.9 mph - N/A   Clear
2:53 PM 73.9 °F 50.0 °F 43% 29.78 in 10.0 mi Variable 5.8 mph - N/A   Clear
3:53 PM 75.0 °F 51.1 °F 43% 29.75 in 10.0 mi West 8.1 mph 16.1 mph N/A   Clear
4:53 PM 73.9 °F 52.0 °F 46% 29.75 in 10.0 mi WNW 9.2 mph 17.3 mph N/A   Clear
5:53 PM 69.1 °F 52.0 °F 54% 29.75 in 10.0 mi West 13.8 mph 20.7 mph N/A   Clear
6:53 PM 63.0 °F 52.0 °F 67% 29.79 in 10.0 mi West 10.4 mph 20.7 mph N/A   Clear
7:53 PM 61.0 °F 52.0 °F 72% 29.81 in 10.0 mi West 11.5 mph - N/A   Clear